StationID,Date,MaxTemp,MinTemp,Precipitation,Snowfall,SnowDepth
"CA001033230","1958-07-01",80.06,55.94,0.00,0.00,
"CA001033230","1958-07-02",84.02,53.96,0.00,0.00,
"CA001033230","1958-07-03",84.02,55.94,0.00,0.00,
"CA001033230","1958-07-04",86.00,60.98,0.00,0.00,
"CA001033230","1958-07-05",89.06,60.98,0.00,0.00,
"CA001033230","1958-07-06",91.04,62.96,0.00,0.00,
"CA001033230","1958-07-07",86.00,66.02,0.00,0.00,
"CA001033230","1958-07-08",80.06,59.00,0.00,0.00,
"CA001033230","1958-07-09",80.06,62.96,0.00,0.00,
"CA001033230","1958-07-10",82.04,59.00,0.00,0.00,
"CA001033230","1958-07-11",82.94,57.92,0.00,0.00,
"CA001033230","1958-07-12",78.98,62.06,0.00,0.00,
"CA001033230","1958-07-13",77.00,57.02,0.00,0.00,
"CA001033230","1958-07-14",86.00,57.02,0.00,0.00,
"CA001033230","1958-07-15",93.02,62.06,0.00,0.00,
"CA001033230","1958-07-16",93.92,64.94,0.00,0.00,
"CA001033230","1958-07-17",80.06,62.06,0.00,0.00,
"CA001033230","1958-07-18",78.08,57.02,0.00,0.00,
"CA001033230","1958-07-19",78.98,55.94,0.00,0.00,
"CA001033230","1958-07-20",82.94,55.94,0.00,0.00,
"CA001033230","1958-07-21",86.00,64.04,0.00,0.00,
"CA001033230","1958-07-22",89.06,60.08,0.00,0.00,
"CA001033230","1958-07-23",89.06,62.06,0.00,0.00,
"CA001033230","1958-07-24",91.94,64.04,0.00,0.00,
"CA001033230","1958-07-25",89.06,64.04,0.00,0.00,
"CA001033230","1958-07-26",93.92,69.08,0.00,0.00,
"CA001033230","1958-07-27",96.98,69.98,0.00,0.00,
"CA001033230","1958-07-28",93.92,69.98,0.00,0.00,
"CA001033230","1958-07-29",84.02,64.04,0.00,0.00,
"CA001033230","1958-07-30",73.04,59.00,23.00,0.00,
"CA001033230","1958-07-31",71.96,60.08,0.00,0.00,
"CA001033230","1958-08-01",75.02,51.98,0.00,0.00,
"CA001033230","1958-08-02",73.94,51.98,86.00,0.00,
"CA001033230","1958-08-03",71.06,51.98,8.00,0.00,
"CA001033230","1958-08-04",64.94,53.96,5.00,0.00,
"CA001033230","1958-08-05",71.06,57.92,196.00,0.00,
"CA001033230","1958-08-06",69.08,60.08,84.00,0.00,
"CA001033230","1958-08-07",68.00,57.02,0.00,0.00,
"CA001033230","1958-08-08",71.96,53.96,0.00,0.00,
"CA001033230","1958-08-09",73.04,51.08,0.00,0.00,
"CA001033230","1958-08-10",78.98,55.04,0.00,0.00,
"CA001033230","1958-08-11",77.00,57.92,0.00,0.00,
"CA001033230","1958-08-12",77.00,51.98,0.00,0.00,
"CA001033230","1958-08-13",71.06,60.98,86.00,0.00,
"CA001033230","1958-08-14",77.00,59.00,3.00,0.00,
"CA001033230","1958-08-15",78.98,60.98,0.00,0.00,
"CA001033230","1958-08-16",80.06,59.00,0.00,0.00,
"CA001033230","1958-08-17",78.98,59.00,0.00,0.00,
"CA001033230","1958-08-18",78.98,57.02,0.00,0.00,
"CA001033230","1958-08-19",89.06,55.94,0.00,0.00,
"CA001033230","1958-08-20",87.98,60.98,0.00,0.00,
"CA001033230","1958-08-21",91.94,66.02,0.00,0.00,
"CA001033230","1958-08-22",84.92,62.96,0.00,0.00,
"CA001033230","1958-08-23",86.00,62.96,0.00,0.00,
"CA001033230","1958-08-24",95.00,62.96,0.00,0.00,
"CA001033230","1958-08-25",84.02,68.00,0.00,0.00,
"CA001033230","1958-08-26",75.92,60.08,0.00,0.00,
"CA001033230","1958-08-27",73.94,55.04,0.00,0.00,
"CA001033230","1958-08-28",71.06,53.06,175.00,0.00,
"CA001033230","1958-08-29",62.96,51.98,112.00,0.00,
"CA001033230","1958-08-30",68.00,57.92,140.00,0.00,
"CA001033230","1958-08-31",64.04,55.94,498.00,0.00,
"CA001033230","1958-09-01",64.94,51.98,33.00,0.00,
"CA001033230","1958-09-02",66.92,48.92,0.00,0.00,
"CA001033230","1958-09-03",69.98,50.00,0.00,0.00,
"CA001033230","1958-09-04",69.98,51.98,0.00,0.00,
"CA001033230","1958-09-05",75.02,51.08,0.00,0.00,
"CA001033230","1958-09-06",87.08,55.04,0.00,0.00,
"CA001033230","1958-09-07",80.06,60.08,0.00,0.00,
"CA001033230","1958-09-08",66.02,60.08,188.00,0.00,
"CA001033230","1958-09-09",64.04,59.00,109.00,0.00,
"CA001033230","1958-09-10",66.92,62.06,201.00,0.00,
"CA001033230","1958-09-11",64.94,55.04,28.00,0.00,
"CA001033230","1958-09-12",62.06,55.04,0.00,0.00,
"CA001033230","1958-09-13",66.92,51.98,0.00,0.00,
"CA001033230","1958-09-14",66.02,51.98,5.00,0.00,
"CA001033230","1958-09-15",62.06,51.98,828.00,0.00,
"CA001033230","1958-09-16",62.06,53.96,188.00,0.00,
"CA001033230","1958-09-17",60.98,53.96,112.00,0.00,
"CA001033230","1958-09-18",60.08,51.98,284.00,0.00,
"CA001033230","1958-09-19",62.06,48.92,10.00,0.00,
"CA001033230","1958-09-20",51.98,48.02,165.00,0.00,
"CA001033230","1958-09-21",55.04,46.04,165.00,0.00,
"CA001033230","1958-09-22",55.94,41.00,23.00,0.00,
"CA001033230","1958-09-23",60.98,39.02,81.00,0.00,
"CA001033230","1958-09-24",51.08,46.94,84.00,0.00,
"CA001033230","1958-09-25",57.02,46.94,81.00,0.00,
"CA001033230","1958-09-26",57.92,51.08,25.00,0.00,
"CA001033230","1958-09-27",60.08,53.06,8.00,0.00,
"CA001033230","1958-09-28",66.92,53.96,0.00,0.00,
"CA001033230","1958-09-29",69.98,48.02,0.00,0.00,
"CA001033230","1958-09-30",62.06,46.94,0.00,0.00,
"CA001033230","1958-10-01",71.96,48.02,0.00,0.00,
"CA001033230","1958-10-02",73.04,53.06,0.00,0.00,
"CA001033230","1958-10-03",69.98,51.98,0.00,0.00,
"CA001033230","1958-10-04",64.94,51.08,0.00,0.00,
"CA001033230","1958-10-05",64.94,51.08,0.00,0.00,
"CA001033230","1958-10-06",53.06,44.96,295.00,0.00,
"CA001033230","1958-10-07",53.06,48.02,221.00,0.00,
"CA001033230","1958-10-08",55.04,42.08,74.00,0.00,
"CA001033230","1958-10-09",46.94,42.98,333.00,0.00,
"CA001033230","1958-10-10",57.02,44.06,699.00,0.00,
"CA001033230","1958-10-11",60.08,48.92,602.00,0.00,
"CA001033230","1958-10-12",55.04,50.00,272.00,0.00,
"CA001033230","1958-10-13",53.96,51.08,1054.00,0.00,
"CA001033230","1958-10-14",62.06,46.94,0.00,0.00,
"CA001033230","1958-10-15",59.00,44.96,0.00,0.00,
"CA001033230","1958-10-16",64.04,46.04,0.00,0.00,
"CA001033230","1958-10-17",62.96,46.94,922.00,0.00,
"CA001033230","1958-10-18",55.04,46.94,282.00,0.00,
"CA001033230","1958-10-19",55.04,42.98,5.00,0.00,
"CA001033230","1958-10-20",50.00,44.06,0.00,0.00,
"CA001033230","1958-10-21",55.94,44.06,0.00,0.00,
"CA001033230","1958-10-22",50.00,42.98,46.00,0.00,
"CA001033230","1958-10-23",48.92,39.02,10.00,0.00,
"CA001033230","1958-10-24",51.98,48.02,0.00,0.00,
"CA001033230","1958-10-25",53.96,42.98,0.00,0.00,
"CA001033230","1958-10-26",53.06,42.08,0.00,0.00,
"CA001033230","1958-10-27",59.00,48.02,0.00,0.00,
"CA001033230","1958-10-28",57.92,42.08,0.00,0.00,
"CA001033230","1958-10-29",62.06,46.94,0.00,0.00,
"CA001033230","1958-10-30",71.06,46.94,1171.00,0.00,
"CA001033230","1958-10-31",59.00,48.92,201.00,0.00,
"CA001033230","1958-11-01",51.98,41.00,414.00,0.00,
"CA001033230","1958-11-02",53.06,46.04,84.00,0.00,
"CA001033230","1958-11-03",46.94,41.00,74.00,0.00,
"CA001033230","1958-11-04",46.94,39.92,0.00,0.00,
"CA001033230","1958-11-05",53.06,37.94,310.00,0.00,
"CA001033230","1958-11-06",51.08,42.08,46.00,0.00,
"CA001033230","1958-11-07",48.02,37.94,257.00,0.00,
"CA001033230","1958-11-08",48.02,42.98,76.00,0.00,
"CA001033230","1958-11-09",48.02,39.02,130.00,0.00,
"CA001033230","1958-11-10",42.98,39.02,147.00,0.00,
"CA001033230","1958-11-11",44.96,39.02,41.00,0.00,
"CA001033230","1958-11-12",48.02,39.92,74.00,0.00,
"CA001033230","1958-11-13",42.98,35.06,0.00,0.00,
"CA001033230","1958-11-14",44.06,33.98,0.00,0.00,
"CA001033230","1958-11-15",42.08,30.92,0.00,0.00,
"CA001033230","1958-11-16",37.04,26.96,13.00,13.00,
"CA001033230","1958-11-17",35.96,32.00,439.00,5.00,
"CA001033230","1958-11-18",,32.00,,,
"CA001033230","1958-11-22",44.06,,,,
"CA001033230","1958-11-23",44.06,33.98,41.00,0.00,
"CA001033230","1958-11-24",41.00,33.08,0.00,0.00,
"CA001033230","1958-11-25",39.92,26.96,0.00,0.00,
"CA001033230","1958-11-26",37.94,21.92,0.00,0.00,
"CA001033230","1958-11-27",37.04,26.06,0.00,0.00,
"CA001033230","1958-11-28",46.94,30.92,467.00,0.00,
"CA001033230","1958-11-29",51.98,35.06,566.00,0.00,
"CA001033230","1958-11-30",55.04,39.92,1237.00,0.00,
"CA001033230","1958-12-01",57.02,48.02,556.00,0.00,
"CA001033230","1958-12-02",55.04,46.94,229.00,0.00,
"CA001033230","1958-12-03",46.94,39.02,0.00,0.00,
"CA001033230","1958-12-04",41.00,30.02,0.00,0.00,
"CA001033230","1958-12-05",39.02,30.92,28.00,0.00,
"CA001033230","1958-12-06",39.02,33.98,53.00,53.00,
"CA001033230","1958-12-07",35.96,32.00,74.00,74.00,
"CA001033230","1958-12-08",39.02,33.08,0.00,0.00,
"CA001033230","1958-12-09",41.00,33.98,10.00,0.00,
"CA001033230","1958-12-10",42.98,37.04,249.00,0.00,
"CA001033230","1958-12-11",46.94,39.92,41.00,0.00,
"CA001033230","1958-12-12",41.00,35.96,0.00,0.00,
"CA001033230","1958-12-13",42.98,33.98,0.00,0.00,
"CA001033230","1958-12-14",46.04,30.92,122.00,0.00,
"CA001033230","1958-12-15",46.94,37.94,196.00,0.00,
"CA001033230","1958-12-16",46.94,41.00,462.00,0.00,
"CA001033230","1958-12-17",46.94,42.98,323.00,0.00,
"CA001033230","1958-12-18",46.04,37.94,0.00,0.00,
"CA001033230","1958-12-19",44.96,37.04,384.00,0.00,
"CA001033230","1958-12-20",44.96,42.08,185.00,0.00,
"CA001033230","1958-12-21",46.04,41.00,61.00,0.00,
"CA001033230","1958-12-22",46.94,39.92,0.00,0.00,
"CA001033230","1958-12-23",44.96,,470.00,0.00,
"CA001033230","1958-12-24",44.06,37.04,0.00,0.00,
"CA001033230","1958-12-25",42.98,35.96,216.00,0.00,
"CA001033230","1958-12-26",,39.02,,,
"CA001033230","1959-01-22",42.08,32.00,328.00,0.00,
"CA001033230","1959-01-23",44.96,37.04,38.00,0.00,
"CA001033230","1959-01-24",42.98,37.94,112.00,0.00,
"CA001033230","1959-01-25",46.94,39.02,64.00,0.00,
"CA001033230","1959-01-26",44.96,39.02,183.00,0.00,
"CA001033230","1959-01-27",44.96,35.06,23.00,0.00,
"CA001033230","1959-01-28",42.98,35.96,0.00,0.00,
"CA001033230","1959-01-29",44.96,35.06,0.00,0.00,
"CA001033230","1959-01-30",44.96,32.00,18.00,0.00,
"CA001033230","1959-01-31",44.06,33.98,0.00,0.00,
"CA001033230","1959-02-01",46.04,35.06,0.00,0.00,
"CA001033230","1959-02-02",46.04,35.96,0.00,0.00,
"CA001033230","1959-02-03",48.02,37.94,0.00,0.00,
"CA001033230","1959-02-04",44.96,32.00,102.00,0.00,
"CA001033230","1959-02-05",39.92,35.96,168.00,0.00,
"CA001033230","1959-02-06",44.06,32.00,0.00,0.00,
"CA001033230","1959-02-07",42.08,32.00,0.00,0.00,
"CA001033230","1959-02-08",39.02,32.00,0.00,0.00,
"CA001033230","1959-02-09",39.92,30.02,0.00,0.00,
"CA001033230","1959-02-10",37.04,30.02,0.00,0.00,
"CA001033230","1959-02-11",41.00,24.98,10.00,10.00,
"CA001033230","1959-02-12",37.04,32.00,462.00,0.00,
"CA001033230","1959-02-13",37.94,32.00,498.00,25.00,
"CA001033230","1959-02-14",37.04,32.00,38.00,0.00,
"CA001033230","1959-02-15",42.98,30.92,0.00,0.00,
"CA001033230","1959-02-16",44.96,35.96,13.00,0.00,
"CA001033230","1959-02-17",51.08,39.02,0.00,0.00,
"CA001033230","1959-02-18",51.98,37.94,0.00,0.00,
"CA001033230","1959-02-19",48.92,37.04,20.00,0.00,
"CA001033230","1959-02-20",53.06,39.92,0.00,0.00,
"CA001033230","1959-02-21",51.08,33.98,0.00,0.00,
"CA001033230","1959-02-22",51.08,37.04,71.00,0.00,
"CA001033230","1959-02-23",46.94,37.94,119.00,0.00,
"CA001033230","1959-02-24",44.06,37.94,439.00,0.00,
"CA001033230","1959-02-25",44.96,39.02,69.00,0.00,
"CA001033230","1959-02-26",42.98,37.04,43.00,0.00,
"CA001033230","1959-02-27",46.04,39.02,513.00,0.00,
"CA001033230","1959-02-28",46.04,41.00,170.00,0.00,
"CA001033230","1959-03-01",48.92,37.04,15.00,0.00,
"CA001033230","1959-03-02",41.00,35.96,338.00,0.00,
"CA001033230","1959-03-03",46.94,33.08,0.00,0.00,
"CA001033230","1959-03-04",50.00,37.04,51.00,0.00,
"CA001033230","1959-03-05",48.92,37.94,0.00,0.00,
"CA001033230","1959-03-06",44.06,39.02,56.00,0.00,
"CA001033230","1959-03-07",44.96,37.04,333.00,0.00,
"CA001033230","1959-03-08",42.98,35.06,109.00,0.00,
"CA001033230","1959-03-09",42.98,33.98,25.00,0.00,
"CA001033230","1959-03-10",42.98,33.08,724.00,0.00,
"CA001033230","1959-03-11",46.04,37.94,193.00,0.00,
"CA001033230","1959-03-12",37.94,35.06,91.00,25.00,
"CA001033230","1959-03-13",44.06,32.00,3.00,0.00,
"CA001033230","1959-03-14",42.08,32.00,30.00,0.00,
"CA001033230","1959-03-15",44.96,37.94,23.00,0.00,
"CA001033230","1959-03-16",51.98,41.00,216.00,0.00,
"CA001033230","1959-03-17",46.94,42.98,170.00,0.00,
"CA001033230","1959-03-18",42.98,37.04,58.00,0.00,
"CA001033230","1959-03-19",48.02,32.00,180.00,0.00,
"CA001033230","1959-03-20",39.92,35.06,587.00,0.00,
"CA001033230","1959-03-21",44.96,37.04,0.00,0.00,
"CA001033230","1959-03-22",50.00,30.02,0.00,0.00,
"CA001033230","1959-03-23",53.96,32.00,0.00,0.00,
"CA001033230","1959-03-24",53.96,30.92,81.00,0.00,
"CA001033230","1959-03-25",44.96,39.02,196.00,0.00,
"CA001033230","1959-03-26",,,,0.00,
"CA001033230","1959-03-27",46.04,35.06,,0.00,
"CA001033230","1959-03-28",48.02,37.94,178.00,0.00,
"CA001033230","1959-03-29",44.96,37.04,114.00,0.00,
"CA001033230","1959-03-30",53.06,37.94,170.00,0.00,
"CA001033230","1959-03-31",48.02,41.00,323.00,0.00,
"CA001033230","1959-04-01",46.04,39.02,48.00,0.00,
"CA001033230","1959-04-02",,37.04,,0.00,
"CA001033230","1959-04-03",,,,0.00,
"CA001033230","1959-04-04",,,,0.00,
"CA001033230","1959-04-05",,,,0.00,
"CA001033230","1959-04-06",55.94,33.98,25.00,0.00,
"CA001033230","1959-04-07",66.02,33.98,0.00,0.00,
"CA001033230","1959-04-08",66.02,37.94,0.00,0.00,
"CA001033230","1959-04-09",75.02,39.92,0.00,0.00,
"CA001033230","1959-04-10",57.02,39.02,18.00,0.00,
"CA001033230","1959-04-11",53.96,42.98,25.00,0.00,
"CA001033230","1959-04-12",57.92,39.02,0.00,0.00,
"CA001033230","1959-04-13",57.02,39.02,97.00,0.00,
"CA001033230","1959-04-14",55.04,37.94,0.00,0.00,
"CA001033230","1959-04-15",,35.96,0.00,0.00,
"CA001033230","1959-04-16",57.92,,0.00,0.00,
"CA001033230","1959-04-17",59.00,37.04,0.00,0.00,
"CA001033230","1959-04-18",57.92,37.04,0.00,0.00,
"CA001033230","1959-04-19",62.96,39.02,0.00,0.00,
"CA001033230","1959-04-20",66.02,42.08,0.00,0.00,
"CA001033230","1959-04-21",71.96,44.06,0.00,0.00,
"CA001033230","1959-04-22",64.04,44.06,0.00,0.00,
"CA001033230","1959-04-23",66.92,48.02,0.00,0.00,
"CA001033230","1959-04-24",60.98,42.98,0.00,0.00,
"CA001033230","1959-04-25",55.94,42.08,109.00,0.00,
"CA001033230","1959-04-26",46.94,42.08,196.00,0.00,
"CA001033230","1959-04-27",46.94,37.94,315.00,0.00,
"CA001033230","1959-04-28",53.06,41.00,770.00,0.00,
"CA001033230","1959-04-29",55.04,48.02,297.00,0.00,
"CA001033230","1959-04-30",48.92,42.98,229.00,0.00,
"CA001033230","1959-05-01",44.06,39.02,10.00,0.00,
"CA001033230","1959-05-02",55.94,42.08,48.00,0.00,
"CA001033230","1959-05-03",48.92,42.08,102.00,0.00,
"CA001033230","1959-05-04",53.06,37.94,0.00,0.00,
"CA001033230","1959-05-05",60.08,42.08,0.00,0.00,
"CA001033230","1959-05-06",60.08,42.08,0.00,0.00,
"CA001033230","1959-05-07",62.06,42.08,64.00,0.00,
"CA001033230","1959-05-08",60.08,44.96,53.00,0.00,
"CA001033230","1959-05-09",57.02,42.08,0.00,0.00,
"CA001033230","1959-05-10",55.94,41.00,8.00,0.00,
"CA001033230","1959-05-11",60.08,37.04,0.00,0.00,
"CA001033230","1959-05-12",75.92,44.96,0.00,0.00,
"CA001033230","1959-05-13",69.08,55.04,43.00,0.00,
"CA001033230","1959-05-14",55.94,50.00,8.00,0.00,
"CA001033230","1959-05-15",60.08,42.98,0.00,0.00,
"CA001033230","1959-05-16",53.96,46.04,,0.00,
"CA001033230","1959-05-17",,44.96,,0.00,
"CA001033230","1959-05-18",59.00,,,0.00,
"CA001033230","1959-05-19",62.06,41.00,,0.00,
"CA001033230","1959-05-20",62.96,42.08,0.00,0.00,
"CA001033230","1959-05-21",71.96,44.06,0.00,0.00,
"CA001033230","1959-05-22",80.06,46.94,0.00,0.00,
"CA001033230","1959-05-23",82.94,50.00,0.00,0.00,
"CA001033230","1959-05-24",66.92,50.00,0.00,0.00,
"CA001033230","1959-05-25",62.06,50.00,48.00,0.00,
"CA001033230","1959-05-26",57.02,50.00,64.00,0.00,
"CA001033230","1959-05-27",60.98,48.02,0.00,0.00,
"CA001033230","1959-05-28",64.04,46.04,0.00,0.00,
"CA001033230","1959-05-29",69.08,44.06,0.00,0.00,
"CA001033230","1959-05-30",69.08,46.04,0.00,0.00,
"CA001033230","1959-05-31",77.00,46.94,0.00,0.00,
"CA001033230","1959-06-01",78.08,51.98,0.00,0.00,
"CA001033230","1959-06-02",55.94,51.08,97.00,0.00,
"CA001033230","1959-06-03",66.02,48.02,320.00,0.00,
"CA001033230","1959-06-04",57.92,48.92,160.00,0.00,
"CA001033230","1959-06-05",62.06,48.02,127.00,0.00,
"CA001033230","1959-06-06",55.94,42.08,157.00,0.00,
"CA001033230","1959-06-07",55.94,48.02,239.00,0.00,
"CA001033230","1959-06-08",55.04,46.04,51.00,0.00,
"CA001033230","1959-06-09",59.00,44.06,5.00,0.00,
"CA001033230","1959-06-10",62.06,44.96,114.00,0.00,
"CA001033230","1959-06-11",59.00,50.00,112.00,0.00,
"CA001033230","1959-06-12",55.04,50.00,94.00,0.00,
"CA001033230","1959-06-13",60.98,46.04,0.00,0.00,
"CA001033230","1959-06-14",60.98,46.94,0.00,0.00,
"CA001033230","1959-06-15",68.00,46.94,0.00,0.00,
"CA001033230","1959-06-16",73.94,48.02,0.00,0.00,
"CA001033230","1959-06-17",71.96,53.06,0.00,0.00,
"CA001033230","1959-06-18",78.98,51.98,0.00,0.00,
"CA001033230","1959-06-19",78.08,57.02,30.00,0.00,
"CA001033230","1959-06-20",68.00,57.02,0.00,0.00,
"CA001033230","1959-06-21",71.06,51.98,0.00,0.00,
"CA001033230","1959-06-22",71.96,51.08,0.00,0.00,
"CA001033230","1959-06-23",66.92,51.08,15.00,0.00,
"CA001033230","1959-06-24",64.04,53.96,61.00,0.00,
"CA001033230","1959-06-25",64.94,53.06,13.00,0.00,
"CA001033230","1959-06-26",64.94,51.98,51.00,0.00,
"CA001033230","1959-06-27",64.04,48.02,15.00,0.00,
"CA001033230","1959-06-28",73.04,53.06,0.00,0.00,
"CA001033230","1959-06-29",71.06,51.08,0.00,0.00,
"CA001033230","1959-06-30",73.94,55.04,18.00,0.00,
"CA001033230","1959-07-01",62.06,55.04,114.00,0.00,
"CA001033230","1959-07-02",57.92,53.06,89.00,0.00,
"CA001033230","1959-07-03",62.06,53.06,0.00,0.00,
"CA001033230","1959-07-04",60.98,51.98,351.00,0.00,
"CA001033230","1959-07-05",55.94,48.92,424.00,0.00,
"CA001033230","1959-07-06",62.96,46.94,0.00,0.00,
"CA001033230","1959-07-07",69.98,48.02,0.00,0.00,
"CA001033230","1959-07-08",75.02,50.00,0.00,0.00,
"CA001033230","1959-07-09",82.94,53.96,0.00,0.00,
"CA001033230","1959-07-10",78.98,55.04,0.00,0.00,
"CA001033230","1959-07-11",77.00,51.08,0.00,0.00,
"CA001033230","1959-07-12",62.06,55.04,5.00,0.00,
"CA001033230","1959-07-13",73.04,48.92,0.00,0.00,
"CA001033230","1959-07-14",71.06,51.98,0.00,0.00,
"CA001033230","1959-07-15",80.96,51.98,0.00,0.00,
"CA001033230","1959-07-16",84.92,55.94,0.00,0.00,
"CA001033230","1959-07-17",93.02,57.92,0.00,0.00,
"CA001033230","1959-07-18",93.02,64.94,0.00,0.00,
"CA001033230","1959-07-19",91.94,64.04,0.00,0.00,
"CA001033230","1959-07-20",91.04,69.98,0.00,0.00,
"CA001033230","1959-07-21",91.04,66.02,0.00,0.00,
"CA001033230","1959-07-22",87.08,62.06,0.00,0.00,
"CA001033230","1959-07-23",75.92,57.02,0.00,0.00,
"CA001033230","1959-07-24",66.02,60.98,0.00,0.00,
"CA001033230","1959-07-25",73.04,53.96,0.00,0.00,
"CA001033230","1959-07-26",71.96,59.00,0.00,0.00,
"CA001033230","1959-07-27",68.00,51.08,0.00,0.00,
"CA001033230","1959-07-28",73.04,55.04,0.00,0.00,
"CA001033230","1959-07-29",82.04,55.04,0.00,0.00,
"CA001033230","1959-07-30",91.94,59.00,0.00,0.00,
"CA001033230","1959-07-31",93.02,62.06,0.00,0.00,
"CA001033230","1959-08-01",80.06,62.06,0.00,0.00,
"CA001033230","1959-08-02",69.08,53.96,20.00,0.00,
"CA001033230","1959-08-03",60.98,55.04,76.00,0.00,
"CA001033230","1959-08-04",66.02,53.06,0.00,0.00,
"CA001033230","1959-08-05",71.96,51.98,0.00,0.00,
"CA001033230","1959-08-06",75.02,57.92,0.00,0.00,
"CA001033230","1959-08-07",75.02,59.00,0.00,0.00,
"CA001033230","1959-08-08",77.00,57.92,0.00,0.00,
"CA001033230","1959-08-09",77.00,53.96,0.00,0.00,
"CA001033230","1959-08-10",73.94,55.94,0.00,0.00,
"CA001033230","1959-08-11",69.08,57.92,58.00,0.00,
"CA001033230","1959-08-12",71.96,55.94,0.00,0.00,
"CA001033230","1959-08-13",75.02,53.06,0.00,0.00,
"CA001033230","1959-08-14",66.92,55.94,38.00,0.00,
"CA001033230","1959-08-15",69.08,57.02,10.00,0.00,
"CA001033230","1959-08-16",,,,0.00,
"CA001033230","1959-08-17",66.92,57.02,,0.00,
"CA001033230","1959-08-18",,,0.00,0.00,
"CA001033230","1959-08-19",,,0.00,0.00,
"CA001033230","1959-08-20",82.04,57.92,0.00,0.00,
"CA001033230","1959-08-21",,55.94,,0.00,
"CA001033230","1959-08-22",71.96,55.94,0.00,0.00,
"CA001033230","1959-08-23",73.04,53.96,0.00,0.00,
"CA001033230","1959-08-24",75.92,51.98,0.00,0.00,
"CA001033230","1959-08-25",75.92,55.94,0.00,0.00,
"CA001033230","1959-08-26",64.04,59.00,3.00,0.00,
"CA001033230","1959-08-27",59.00,55.94,119.00,0.00,
"CA001033230","1959-08-28",66.92,51.08,8.00,0.00,
"CA001033230","1959-08-29",66.92,48.92,0.00,0.00,
"CA001033230","1959-08-30",60.98,51.98,13.00,0.00,
"CA001033230","1959-08-31",71.96,51.98,0.00,0.00,
"CA001033230","1959-09-01",71.06,50.00,0.00,0.00,
"CA001033230","1959-09-02",64.94,50.00,30.00,0.00,
"CA001033230","1959-09-03",62.96,51.08,51.00,0.00,
"CA001033230","1959-09-04",,,,0.00,
"CA001033230","1959-09-05",,,,0.00,
"CA001033230","1959-09-06",,,,0.00,
"CA001033230","1959-09-07",,,,0.00,
"CA001033230","1959-09-08",68.00,,,0.00,
"CA001033230","1959-09-09",68.00,51.08,0.00,0.00,
"CA001033230","1959-09-10",71.96,51.98,0.00,0.00,
"CA001033230","1959-09-11",68.00,51.08,0.00,0.00,
"CA001033230","1959-09-12",62.96,55.94,46.00,0.00,
"CA001033230","1959-09-13",68.00,55.94,86.00,0.00,
"CA001033230","1959-09-14",59.00,53.96,15.00,0.00,
"CA001033230","1959-09-15",60.08,50.00,0.00,0.00,
"CA001033230","1959-09-16",60.08,51.98,20.00,0.00,
"CA001033230","1959-09-17",62.06,48.92,48.00,0.00,
"CA001033230","1959-09-18",62.96,51.98,33.00,0.00,
"CA001033230","1959-09-19",64.04,53.96,196.00,0.00,
"CA001033230","1959-09-20",66.92,55.04,0.00,0.00,
"CA001033230","1959-09-21",59.00,53.96,0.00,0.00,
"CA001033230","1959-09-22",68.00,48.92,0.00,0.00,
"CA001033230","1959-09-23",57.02,48.02,323.00,0.00,
"CA001033230","1959-09-24",59.00,53.06,25.00,0.00,
"CA001033230","1959-09-25",57.02,51.08,76.00,0.00,
"CA001033230","1959-09-26",59.00,51.08,5.00,0.00,
"CA001033230","1959-09-27",60.08,44.06,0.00,0.00,
"CA001033230","1959-09-28",60.08,42.98,0.00,0.00,
"CA001033230","1959-09-29",69.08,48.92,0.00,0.00,
"CA001033230","1959-09-30",,48.92,0.00,0.00,
"CA001033230","1959-10-01",60.98,42.98,0.00,0.00,
"CA001033230","1959-10-02",66.92,48.92,0.00,0.00,
"CA001033230","1959-10-03",,,0.00,0.00,
"CA001033230","1959-10-04",,,0.00,0.00,
"CA001033230","1959-10-05",,,0.00,0.00,
"CA001033230","1959-10-06",,,0.00,0.00,
"CA001033230","1959-10-07",,,,0.00,
"CA001033230","1959-10-08",,,,0.00,
"CA001033230","1959-10-09",,,,0.00,
"CA001033230","1959-10-10",,,,0.00,
"CA001033230","1959-10-11",,,,0.00,
"CA001033230","1959-10-12",,,,0.00,
"CA001033230","1959-10-13",,,,0.00,
"CA001033230","1959-10-14",60.98,51.98,25.00,0.00,
"CA001033230","1959-10-15",60.08,44.96,0.00,0.00,
"CA001033230","1959-10-16",60.98,39.92,0.00,0.00,
"CA001033230","1959-10-17",,,0.00,0.00,
"CA001033230","1959-10-18",,,0.00,0.00,
"CA001033230","1959-10-19",59.00,48.92,74.00,0.00,
"CA001033230","1959-10-20",57.02,46.94,211.00,0.00,
"CA001033230","1959-10-21",59.00,48.02,112.00,0.00,
"CA001033230","1959-10-22",55.94,48.02,5.00,0.00,
"CA001033230","1959-10-23",53.96,46.94,419.00,0.00,
"CA001033230","1959-10-24",59.00,50.00,89.00,0.00,
"CA001033230","1959-10-25",57.92,44.96,5.00,0.00,
"CA001033230","1959-10-26",57.02,46.94,8.00,0.00,
"CA001033230","1959-10-27",53.96,44.06,56.00,0.00,
"CA001033230","1959-10-28",51.98,42.08,0.00,0.00,
"CA001033230","1959-10-29",46.94,37.04,0.00,0.00,
"CA001033230","1959-10-30",50.00,42.98,140.00,0.00,
"CA001033230","1959-10-31",,,0.00,0.00,
"CA001033230","1959-11-01",57.02,50.00,,0.00,
"CA001033230","1959-11-02",,,,0.00,
"CA001033230","1959-11-03",55.94,39.92,,0.00,
"CA001033230","1959-11-04",46.94,33.98,0.00,0.00,
"CA001033230","1959-11-05",46.04,37.04,0.00,0.00,
"CA001033230","1959-11-06",,39.02,0.00,0.00,
"CA001033230","1959-11-07",50.00,,20.00,0.00,
"CA001033230","1959-11-08",53.96,44.06,0.00,0.00,
"CA001033230","1959-11-09",55.94,42.98,0.00,0.00,
"CA001033230","1959-11-10",,39.02,0.00,0.00,
"CA001033230","1959-11-11",53.96,,0.00,0.00,
"CA001033230","1959-11-12",,,15.00,0.00,
"CA001033230","1959-11-13",39.02,28.94,25.00,0.00,
"CA001033230","1959-11-14",,32.00,,0.00,